Location: Beadle
(51.4667°N, 109.0000°W)
Time: 10:44:51
(UTC+00:00)

deb Explorer IX - Pass Details

Date: 03 June 2022
Orbit: 535 x 1068 km, 38.8° (Epoch: 04 July)

Event Time Altitude Azimuth Distance (km) Brightness Sun altitude
Rises 14:53:52 0° 210° (SSW) 3,784 ? 32.7°
Reaches altitude 10° 14:57:31 10° 192° (SSW) 2,874 ? 33.3°
Maximum altitude 15:01:53 18° 154° (SSE) 2,383 ? 33.9°
Drops below altitude 10° 15:06:15 10° 116° (ESE) 2,880 ? 34.6°
Sets 15:09:55 0° 98° (E) 3,796 ? 35.2°
